Time,TemperatureF,DewpointF,PressureIn,WindDirection,WindDirectionDegrees,WindSpeedMPH,WindSpeedGustMPH,Humidity,HourlyPrecipIn,Conditions,Clouds,dailyrainin,SoftwareType,DateUTC
2013-01-14 00:00:00,15.4,6.4,30.16,WNW,292,0.0,2.0,67,0.00,,---,0.00,VWS V14.01,2013-01-14 08:00:00,
2013-01-14 00:30:00,13.9,5.9,30.17,SSW,202,0.0,2.0,70,0.00,,---,0.00,VWS V14.01,2013-01-14 08:30:00,
2013-01-14 01:00:00,12.3,4.7,30.17,SSW,202,0.0,0.0,71,0.00,,---,0.00,VWS V14.01,2013-01-14 09:00:00,
2013-01-14 01:30:00,11.4,4.4,30.18,SSW,202,0.0,2.0,73,0.00,,---,0.00,VWS V14.01,2013-01-14 09:30:00,
2013-01-14 02:00:00,12.5,5.8,30.19,WSW,248,1.0,3.0,74,0.00,,---,0.00,VWS V14.01,2013-01-14 10:00:00,
2013-01-14 02:30:00,10.3,4.5,30.20,NNW,338,0.0,3.0,77,0.00,,---,0.00,VWS V14.01,2013-01-14 10:30:00,
2013-01-14 03:00:00,8.8,3.9,30.20,West,270,0.0,2.0,80,0.00,,---,0.00,VWS V14.01,2013-01-14 11:00:00,
2013-01-14 03:30:00,9.4,5.0,30.21,SW,231,1.0,2.0,82,0.00,,---,0.00,VWS V14.01,2013-01-14 11:30:00,
2013-01-14 03:44:00,9.1,3.4,30.21,West,269,0.0,0.0,77,0.00,,---,0.00,VWS V14.01,2013-01-14 11:44:00,
2013-01-14 03:49:00,8.4,2.4,30.21,West,277,0.0,0.0,76,0.00,,---,0.00,VWS V14.01,2013-01-14 11:49:00,
2013-01-14 03:54:00,7.9,2.2,30.20,West,279,0.0,0.0,77,0.00,,---,0.00,VWS V14.01,2013-01-14 11:54:00,
2013-01-14 03:59:00,7.5,2.1,30.20,West,281,0.0,0.0,78,0.00,,---,0.00,VWS V14.01,2013-01-14 11:59:00,
2013-01-14 04:00:00,7.6,2.2,30.20,West,281,0.0,0.0,78,0.00,,---,0.00,VWS V14.01,2013-01-14 12:00:00,
2013-01-14 04:04:00,7.1,1.4,30.21,West,279,0.0,2.0,77,0.00,,---,0.00,VWS V14.01,2013-01-14 12:04:00,
2013-01-14 04:09:00,6.9,2.0,30.21,West,274,1.0,2.0,80,0.00,,---,0.00,VWS V14.01,2013-01-14 12:09:00,
2013-01-14 04:14:00,7.2,2.3,30.21,SW,215,0.0,2.0,80,0.00,,---,0.00,VWS V14.01,2013-01-14 12:14:00,
2013-01-14 04:19:00,7.4,2.5,30.21,West,263,0.0,2.0,80,0.00,,---,0.00,VWS V14.01,2013-01-14 12:19:00,
2013-01-14 04:24:00,8.6,4.8,30.21,West,259,1.0,2.0,84,0.00,,---,0.00,VWS V14.01,2013-01-14 12:24:00,
2013-01-14 04:29:00,9.4,5.0,30.21,WSW,243,1.0,2.0,82,0.00,,---,0.00,VWS V14.01,2013-01-14 12:29:00,
2013-01-14 04:30:00,9.4,5.0,30.21,SW,231,1.0,2.0,82,0.00,,---,0.00,VWS V14.01,2013-01-14 12:30:00,
2013-01-14 04:34:00,9.4,4.2,30.21,SW,224,1.0,2.0,79,0.00,,---,0.00,VWS V14.01,2013-01-14 12:34:00,
2013-01-14 04:39:00,9.4,4.2,30.21,SW,221,2.0,2.0,79,0.00,,---,0.00,VWS V14.01,2013-01-14 12:39:00,
2013-01-14 04:44:00,9.9,4.4,30.21,WSW,243,0.0,2.0,78,0.00,,---,0.00,VWS V14.01,2013-01-14 12:44:00,
2013-01-14 04:49:00,9.8,4.1,30.21,NW,304,2.0,2.0,77,0.00,,---,0.00,VWS V14.01,2013-01-14 12:49:00,
2013-01-14 04:54:00,8.8,2.2,30.21,West,281,1.0,2.0,74,0.00,,---,0.00,VWS V14.01,2013-01-14 12:54:00,
2013-01-14 04:59:00,8.7,3.0,30.21,WSW,243,2.0,2.0,77,0.00,,---,0.00,VWS V14.01,2013-01-14 12:59:00,
2013-01-14 05:00:00,8.6,2.6,30.21,West,281,0.0,2.0,76,0.00,,---,0.00,VWS V14.01,2013-01-14 13:00:00,
2013-01-14 05:04:00,10.0,4.8,30.21,WSW,256,0.0,2.0,79,0.00,,---,0.00,VWS V14.01,2013-01-14 13:04:00,
2013-01-14 05:09:00,10.4,4.3,30.20,SW,231,1.0,2.0,76,0.00,,---,0.00,VWS V14.01,2013-01-14 13:09:00,
2013-01-14 05:14:00,9.8,3.2,30.21,SW,228,0.0,2.0,74,0.00,,---,0.00,VWS V14.01,2013-01-14 13:14:00,
2013-01-14 05:19:00,9.2,2.6,30.21,West,276,0.0,2.0,74,0.00,,---,0.00,VWS V14.01,2013-01-14 13:19:00,
2013-01-14 05:24:00,8.5,1.9,30.21,West,280,0.0,2.0,74,0.00,,---,0.00,VWS V14.01,2013-01-14 13:24:00,
2013-01-14 05:29:00,7.8,1.5,30.21,West,280,1.0,2.0,75,0.00,,---,0.00,VWS V14.01,2013-01-14 13:29:00,
2013-01-14 05:30:00,7.9,1.6,30.21,West,260,2.0,2.0,75,0.00,,---,0.00,VWS V14.01,2013-01-14 13:30:00,
2013-01-14 05:34:00,7.5,1.5,30.22,West,274,1.0,2.0,76,0.00,,---,0.00,VWS V14.01,2013-01-14 13:34:00,
2013-01-14 05:39:00,7.1,1.4,30.22,West,263,0.0,2.0,77,0.00,,---,0.00,VWS V14.01,2013-01-14 13:39:00,
2013-01-14 05:44:00,7.4,2.3,30.22,West,263,0.0,3.0,79,0.00,,---,0.00,VWS V14.01,2013-01-14 13:44:00,
2013-01-14 05:49:00,7.1,1.1,30.23,WNW,291,0.0,3.0,76,0.00,,---,0.00,VWS V14.01,2013-01-14 13:49:00,
2013-01-14 05:54:00,6.8,1.4,30.23,West,271,1.0,3.0,78,0.00,,---,0.00,VWS V14.01,2013-01-14 13:54:00,
2013-01-14 05:59:00,7.2,2.1,30.24,West,261,0.0,2.0,79,0.00,,---,0.00,VWS V14.01,2013-01-14 13:59:00,
2013-01-14 06:00:00,7.0,1.9,30.24,West,269,2.0,3.0,79,0.00,,---,0.00,VWS V14.01,2013-01-14 14:00:00,
2013-01-14 06:04:00,7.3,2.2,30.24,WNW,288,0.0,3.0,79,0.00,,---,0.00,VWS V14.01,2013-01-14 14:04:00,
2013-01-14 06:09:00,7.0,1.9,30.24,WNW,283,1.0,3.0,79,0.00,,---,0.00,VWS V14.01,2013-01-14 14:09:00,
2013-01-14 06:14:00,6.9,2.0,30.24,West,272,0.0,3.0,80,0.00,,---,0.00,VWS V14.01,2013-01-14 14:14:00,
2013-01-14 06:19:00,7.1,2.2,30.24,WSW,253,0.0,3.0,80,0.00,,---,0.00,VWS V14.01,2013-01-14 14:19:00,
2013-01-14 06:24:00,7.0,1.9,30.25,NNW,332,2.0,3.0,79,0.00,,---,0.00,VWS V14.01,2013-01-14 14:24:00,
2013-01-14 06:29:00,6.1,1.0,30.25,WNW,283,1.0,2.0,79,0.00,,---,0.00,VWS V14.01,2013-01-14 14:29:00,
2013-01-14 06:30:00,6.1,0.7,30.25,WNW,290,2.0,5.0,78,0.00,,---,0.00,VWS V14.01,2013-01-14 14:30:00,
2013-01-14 06:34:00,6.2,1.4,30.25,WNW,284,1.0,2.0,80,0.00,,---,0.00,VWS V14.01,2013-01-14 14:34:00,
2013-01-14 06:39:00,6.8,2.5,30.25,WSW,256,1.0,2.0,82,0.00,,---,0.00,VWS V14.01,2013-01-14 14:39:00,
2013-01-14 06:44:00,7.4,3.1,30.26,West,278,0.0,2.0,82,0.00,,---,0.00,VWS V14.01,2013-01-14 14:44:00,
2013-01-14 06:49:00,7.5,2.9,30.27,West,278,0.0,2.0,81,0.00,,---,0.00,VWS V14.01,2013-01-14 14:49:00,
2013-01-14 06:54:00,7.7,3.1,30.27,WSW,257,1.0,3.0,81,0.00,,---,0.00,VWS V14.01,2013-01-14 14:54:00,
2013-01-14 06:59:00,8.3,4.2,30.27,NW,315,2.0,4.0,83,0.00,,---,0.00,VWS V14.01,2013-01-14 14:59:00,
2013-01-14 07:00:00,8.0,3.4,30.27,NW,320,4.0,4.0,81,0.00,,---,0.00,VWS V14.01,2013-01-14 15:00:00,
2013-01-14 07:04:00,9.2,4.6,30.27,West,269,1.0,4.0,81,0.00,,---,0.00,VWS V14.01,2013-01-14 15:04:00,
2013-01-14 07:09:00,8.9,3.7,30.27,SW,224,0.0,4.0,79,0.00,,---,0.00,VWS V14.01,2013-01-14 15:09:00,
2013-01-14 07:14:00,8.8,3.6,30.28,West,274,1.0,4.0,79,0.00,,---,0.00,VWS V14.01,2013-01-14 15:14:00,
2013-01-14 07:19:00,9.1,4.2,30.28,West,271,1.0,4.0,80,0.00,,---,0.00,VWS V14.01,2013-01-14 15:19:00,
2013-01-14 07:24:00,9.8,5.2,30.28,WSW,246,0.0,4.0,81,0.00,,---,0.00,VWS V14.01,2013-01-14 15:24:00,
2013-01-14 07:29:00,10.6,5.4,30.29,SW,236,0.0,0.0,79,0.00,,---,0.00,VWS V14.01,2013-01-14 15:29:00,
2013-01-14 07:30:00,10.5,5.3,30.28,SW,236,0.0,4.0,79,0.00,,---,0.00,VWS V14.01,2013-01-14 15:30:00,
2013-01-14 07:34:00,11.1,5.9,30.29,West,259,0.0,0.0,79,0.00,,---,0.00,VWS V14.01,2013-01-14 15:34:00,
2013-01-14 07:39:00,11.7,6.2,30.29,WSW,258,0.0,1.0,78,0.00,,---,0.00,VWS V14.01,2013-01-14 15:39:00,
2013-01-14 07:44:00,12.5,7.0,30.28,West,266,0.0,1.0,78,0.00,,---,0.00,VWS V14.01,2013-01-14 15:44:00,
2013-01-14 07:49:00,13.3,7.4,30.29,WSW,257,0.0,1.0,77,0.00,,---,0.00,VWS V14.01,2013-01-14 15:49:00,
2013-01-14 07:54:00,14.2,7.7,30.29,West,280,1.0,1.0,75,0.00,,---,0.00,VWS V14.01,2013-01-14 15:54:00,
2013-01-14 07:59:00,15.1,8.3,30.29,West,280,0.0,0.0,74,0.00,,---,0.00,VWS V14.01,2013-01-14 15:59:00,
2013-01-14 08:00:00,14.9,8.1,30.29,West,280,0.0,1.0,74,0.00,,---,0.00,VWS V14.01,2013-01-14 16:00:00,
2013-01-14 08:04:00,15.6,8.2,30.30,WNW,290,1.0,2.0,72,0.00,,---,0.00,VWS V14.01,2013-01-14 16:04:00,
2013-01-14 08:09:00,15.4,8.3,30.30,West,270,1.0,2.0,73,0.00,,---,0.00,VWS V14.01,2013-01-14 16:09:00,
2013-01-14 08:14:00,15.7,8.9,30.31,WNW,288,1.0,2.0,74,0.00,,---,0.00,VWS V14.01,2013-01-14 16:14:00,
2013-01-14 08:19:00,16.1,9.3,30.31,WNW,288,1.0,2.0,74,0.00,,---,0.00,VWS V14.01,2013-01-14 16:19:00,
2013-01-14 08:24:00,16.8,10.0,30.31,West,277,0.0,2.0,74,0.00,,---,0.00,VWS V14.01,2013-01-14 16:24:00,
2013-01-14 08:29:00,17.7,10.8,30.31,WNW,285,0.0,1.0,74,0.00,,---,0.00,VWS V14.01,2013-01-14 16:29:00,
2013-01-14 08:30:00,17.6,10.7,30.31,West,273,0.0,2.0,74,0.00,,---,0.00,VWS V14.01,2013-01-14 16:30:00,
2013-01-14 08:34:00,18.8,11.3,30.31,WNW,285,0.0,1.0,72,0.00,,---,0.00,VWS V14.01,2013-01-14 16:34:00,
2013-01-14 08:39:00,20.0,11.8,30.31,WNW,285,0.0,1.0,70,0.00,,---,0.00,VWS V14.01,2013-01-14 16:39:00,
2013-01-14 08:44:00,21.2,12.3,30.31,WSW,256,0.0,1.0,68,0.00,,---,0.00,VWS V14.01,2013-01-14 16:44:00,
2013-01-14 08:49:00,22.3,12.7,30.31,WSW,255,0.0,1.0,66,0.00,,---,0.00,VWS V14.01,2013-01-14 16:49:00,
2013-01-14 08:54:00,23.4,12.7,30.31,WSW,256,0.0,1.0,63,0.00,,---,0.00,VWS V14.01,2013-01-14 16:54:00,
2013-01-14 08:59:00,24.4,10.6,30.31,WSW,256,0.0,0.0,55,0.00,,---,0.00,VWS V14.01,2013-01-14 16:59:00,
2013-01-14 09:00:00,24.3,10.9,30.31,WSW,256,0.0,1.0,56,0.00,,---,0.00,VWS V14.01,2013-01-14 17:00:00,
2013-01-14 09:04:00,25.5,10.3,30.31,WSW,256,0.0,0.0,52,0.00,,---,0.00,VWS V14.01,2013-01-14 17:04:00,
2013-01-14 09:09:00,27.0,9.5,30.31,ESE,120,0.0,0.0,47,0.00,,---,0.00,VWS V14.01,2013-01-14 17:09:00,
2013-01-14 09:14:00,27.4,7.9,30.32,NW,305,0.0,0.0,43,0.00,,---,0.00,VWS V14.01,2013-01-14 17:14:00,
2013-01-14 09:19:00,27.3,6.2,30.32,East,85,2.0,3.0,40,0.00,,---,0.00,VWS V14.01,2013-01-14 17:19:00,
2013-01-14 09:24:00,27.1,5.4,30.32,ESE,105,2.0,5.0,39,0.00,,---,0.00,VWS V14.01,2013-01-14 17:24:00,
2013-01-14 09:29:00,27.2,5.0,30.32,ESE,117,4.0,4.0,38,0.00,,---,0.00,VWS V14.01,2013-01-14 17:29:00,
2013-01-14 09:30:00,27.2,5.5,30.32,ESE,109,4.0,7.0,39,0.00,,---,0.00,VWS V14.01,2013-01-14 17:30:00,
2013-01-14 09:34:00,27.7,5.4,30.32,ESE,120,7.0,8.0,38,0.00,,---,0.00,VWS V14.01,2013-01-14 17:34:00,
2013-01-14 09:39:00,28.3,4.8,30.32,SE,141,7.0,9.0,36,0.00,,---,0.00,VWS V14.01,2013-01-14 17:39:00,
2013-01-14 09:44:00,28.4,3.6,30.32,ESE,108,4.0,9.0,34,0.00,,---,0.00,VWS V14.01,2013-01-14 17:44:00,
2013-01-14 09:49:00,28.6,3.2,30.32,East,95,7.0,9.0,33,0.00,,---,0.00,VWS V14.01,2013-01-14 17:49:00,
2013-01-14 09:54:00,28.8,3.3,30.32,SSE,153,3.0,9.0,33,0.00,,---,0.00,VWS V14.01,2013-01-14 17:54:00,
2013-01-14 09:59:00,28.8,3.3,30.31,ESE,117,6.0,8.0,33,0.00,,---,0.00,VWS V14.01,2013-01-14 17:59:00,
2013-01-14 10:00:00,28.7,3.2,30.31,ESE,109,9.0,10.0,33,0.00,,---,0.00,VWS V14.01,2013-01-14 18:00:00,
2013-01-14 10:04:00,29.2,3.7,30.31,ESE,120,2.0,8.0,33,0.00,,---,0.00,VWS V14.01,2013-01-14 18:04:00,
2013-01-14 10:09:00,29.6,2.7,30.32,SE,131,4.0,8.0,31,0.00,,---,0.00,VWS V14.01,2013-01-14 18:09:00,
2013-01-14 10:14:00,29.6,3.4,30.32,NE,37,3.0,8.0,32,0.00,,---,0.00,VWS V14.01,2013-01-14 18:14:00,
2013-01-14 10:19:00,29.5,3.3,30.31,East,83,3.0,9.0,32,0.00,,---,0.00,VWS V14.01,2013-01-14 18:19:00,
2013-01-14 10:24:00,29.9,2.2,30.31,SE,125,3.0,9.0,30,0.00,,---,0.00,VWS V14.01,2013-01-14 18:24:00,
2013-01-14 10:29:00,30.0,2.3,30.31,SE,144,4.0,5.0,30,0.00,,---,0.00,VWS V14.01,2013-01-14 18:29:00,
2013-01-14 10:30:00,29.9,2.2,30.31,ESE,120,5.0,9.0,30,0.00,,---,0.00,VWS V14.01,2013-01-14 18:30:00,
2013-01-14 10:34:00,30.2,2.5,30.30,ENE,67,2.0,9.0,30,0.00,,---,0.00,VWS V14.01,2013-01-14 18:34:00,
2013-01-14 10:39:00,30.7,2.2,30.30,ESE,102,3.0,9.0,29,0.00,,---,0.00,VWS V14.01,2013-01-14 18:39:00,
2013-01-14 10:44:00,30.4,1.2,30.31,ENE,72,2.0,9.0,28,0.00,,---,0.00,VWS V14.01,2013-01-14 18:44:00,
2013-01-14 10:49:00,30.6,2.1,30.31,ESE,119,5.0,9.0,29,0.00,,---,0.00,VWS V14.01,2013-01-14 18:49:00,
2013-01-14 10:54:00,30.8,1.5,30.30,East,92,3.0,9.0,28,0.00,,---,0.00,VWS V14.01,2013-01-14 18:54:00,
2013-01-14 10:59:00,30.9,1.6,30.30,NE,51,4.0,5.0,28,0.00,,---,0.00,VWS V14.01,2013-01-14 18:59:00,
2013-01-14 11:00:00,30.8,1.5,30.30,ENE,61,4.0,9.0,28,0.00,,---,0.00,VWS V14.01,2013-01-14 19:00:00,
2013-01-14 11:04:00,30.9,2.4,30.30,East,92,7.0,9.0,29,0.00,,---,0.00,VWS V14.01,2013-01-14 19:04:00,
2013-01-14 11:09:00,31.3,2.0,30.30,SE,125,5.0,9.0,28,0.00,,---,0.00,VWS V14.01,2013-01-14 19:09:00,
2013-01-14 11:14:00,31.4,1.3,30.29,ENE,63,3.0,9.0,27,0.00,,---,0.00,VWS V14.01,2013-01-14 19:14:00,
2013-01-14 11:19:00,31.7,2.3,30.29,ENE,58,7.0,9.0,28,0.00,,---,0.00,VWS V14.01,2013-01-14 19:19:00,
2013-01-14 11:24:00,31.9,0.9,30.28,SE,136,5.0,9.0,26,0.00,,---,0.00,VWS V14.01,2013-01-14 19:24:00,
2013-01-14 11:29:00,31.7,0.8,30.28,SSE,153,3.0,3.0,26,0.00,,---,0.00,VWS V14.01,2013-01-14 19:29:00,
2013-01-14 11:30:00,31.7,0.8,30.28,SW,226,0.0,10.0,26,0.00,,---,0.00,VWS V14.01,2013-01-14 19:30:00,
2013-01-14 11:34:00,32.1,1.9,30.28,ESE,119,3.0,5.0,27,0.00,,---,0.00,VWS V14.01,2013-01-14 19:34:00,
2013-01-14 11:39:00,32.4,1.4,30.28,East,85,6.0,7.0,26,0.00,,---,0.00,VWS V14.01,2013-01-14 19:39:00,
2013-01-14 11:44:00,32.5,0.6,30.28,ENE,63,3.0,7.0,25,0.00,,---,0.00,VWS V14.01,2013-01-14 19:44:00,
2013-01-14 11:49:00,32.5,0.6,30.28,NE,46,4.0,7.0,25,0.00,,---,0.00,VWS V14.01,2013-01-14 19:49:00,
2013-01-14 11:54:00,32.6,0.7,30.28,SE,130,6.0,7.0,25,0.00,,---,0.00,VWS V14.01,2013-01-14 19:54:00,
2013-01-14 11:59:00,32.8,1.7,30.28,NE,41,3.0,5.0,26,0.00,,---,0.00,VWS V14.01,2013-01-14 19:59:00,
2013-01-14 12:00:00,32.7,1.6,30.28,ENE,58,5.0,11.0,26,0.00,,---,0.00,VWS V14.01,2013-01-14 20:00:00,
2013-01-14 12:04:00,33.1,1.1,30.28,East,88,6.0,9.0,25,0.00,,---,0.00,VWS V14.01,2013-01-14 20:04:00,
2013-01-14 12:09:00,33.2,0.3,30.28,ENE,64,4.0,9.0,24,0.00,,---,0.00,VWS V14.01,2013-01-14 20:09:00,
2013-01-14 12:14:00,32.9,0.1,30.28,ENE,72,4.0,9.0,24,0.00,,---,0.00,VWS V14.01,2013-01-14 20:14:00,
2013-01-14 12:19:00,33.2,0.3,30.28,NNE,30,3.0,10.0,24,0.00,,---,0.00,VWS V14.01,2013-01-14 20:19:00,
2013-01-14 12:24:00,33.4,0.5,30.28,ESE,105,2.0,10.0,24,0.00,,---,0.00,VWS V14.01,2013-01-14 20:24:00,
2013-01-14 12:29:00,33.5,0.6,30.27,NE,51,4.0,6.0,24,0.00,,---,0.00,VWS V14.01,2013-01-14 20:29:00,
2013-01-14 12:30:00,33.5,-0.3,30.27,East,82,4.0,10.0,23,0.00,,---,0.00,VWS V14.01,2013-01-14 20:30:00,
2013-01-14 12:34:00,33.7,0.8,30.27,East,92,2.0,7.0,24,0.00,,---,0.00,VWS V14.01,2013-01-14 20:34:00,
2013-01-14 12:39:00,34.0,1.0,30.27,NNE,22,5.0,8.0,24,0.00,,---,0.00,VWS V14.01,2013-01-14 20:39:00,
2013-01-14 12:44:00,33.9,0.0,30.27,ESE,105,2.0,8.0,23,0.00,,---,0.00,VWS V14.01,2013-01-14 20:44:00,
2013-01-14 12:49:00,34.2,0.3,30.26,ESE,103,7.0,9.0,23,0.00,,---,0.00,VWS V14.01,2013-01-14 20:49:00,
2013-01-14 12:54:00,34.5,-0.4,30.26,ESE,105,7.0,10.0,22,0.00,,---,0.00,VWS V14.01,2013-01-14 20:54:00,
2013-01-14 12:59:00,34.4,0.4,30.26,East,84,3.0,5.0,23,0.00,,---,0.00,VWS V14.01,2013-01-14 20:59:00,
2013-01-14 13:00:00,34.4,0.4,30.26,ENE,63,3.0,10.0,23,0.00,,---,0.00,VWS V14.01,2013-01-14 21:00:00,
2013-01-14 13:04:00,34.6,-0.3,30.26,ENE,77,11.0,11.0,22,0.00,,---,0.00,VWS V14.01,2013-01-14 21:04:00,
2013-01-14 13:09:00,35.0,0.0,30.26,ENE,58,2.0,11.0,22,0.00,,---,0.00,VWS V14.01,2013-01-14 21:09:00,
2013-01-14 13:14:00,35.3,0.3,30.26,East,89,6.0,11.0,22,0.00,,---,0.00,VWS V14.01,2013-01-14 21:14:00,
2013-01-14 13:19:00,35.2,0.2,30.26,SE,124,6.0,11.0,22,0.00,,---,0.00,VWS V14.01,2013-01-14 21:19:00,
2013-01-14 13:24:00,35.4,0.3,30.26,East,80,6.0,11.0,22,0.00,,---,0.00,VWS V14.01,2013-01-14 21:24:00,
2013-01-14 13:29:00,35.6,0.5,30.26,East,82,4.0,4.0,22,0.00,,---,0.00,VWS V14.01,2013-01-14 21:29:00,
2013-01-14 13:30:00,35.5,0.4,30.26,NE,47,4.0,11.0,22,0.00,,---,0.00,VWS V14.01,2013-01-14 21:30:00,
2013-01-14 13:34:00,35.9,-0.2,30.26,NE,54,6.0,11.0,21,0.00,,---,0.00,VWS V14.01,2013-01-14 21:34:00,
2013-01-14 13:39:00,35.7,0.6,30.26,East,81,8.0,12.0,22,0.00,,---,0.00,VWS V14.01,2013-01-14 21:39:00,
2013-01-14 13:44:00,35.5,0.4,30.27,East,82,6.0,12.0,22,0.00,,---,0.00,VWS V14.01,2013-01-14 21:44:00,
2013-01-14 13:49:00,35.5,-0.6,30.27,ESE,119,6.0,12.0,21,0.00,,---,0.00,VWS V14.01,2013-01-14 21:49:00,
2013-01-14 13:54:00,35.7,-0.4,30.27,ENE,77,3.0,12.0,21,0.00,,---,0.00,VWS V14.01,2013-01-14 21:54:00,
2013-01-14 13:59:00,35.9,-0.2,30.26,ESE,103,6.0,6.0,21,0.00,,---,0.00,VWS V14.01,2013-01-14 21:59:00,
2013-01-14 14:00:00,35.8,-0.3,30.26,East,101,6.0,12.0,21,0.00,,---,0.00,VWS V14.01,2013-01-14 22:00:00,
2013-01-14 14:04:00,35.8,-0.3,30.26,ENE,64,5.0,11.0,21,0.00,,---,0.00,VWS V14.01,2013-01-14 22:04:00,
2013-01-14 14:09:00,36.1,-0.1,30.26,SE,130,3.0,11.0,21,0.00,,---,0.00,VWS V14.01,2013-01-14 22:09:00,
2013-01-14 14:14:00,36.1,-0.1,30.26,East,96,4.0,11.0,21,0.00,,---,0.00,VWS V14.01,2013-01-14 22:14:00,
2013-01-14 14:19:00,36.5,0.3,30.26,East,89,4.0,11.0,21,0.00,,---,0.00,VWS V14.01,2013-01-14 22:19:00,
2013-01-14 14:24:00,36.4,0.2,30.26,ENE,71,4.0,11.0,21,0.00,,---,0.00,VWS V14.01,2013-01-14 22:24:00,
2013-01-14 14:29:00,36.6,-0.7,30.27,SE,130,4.0,5.0,20,0.00,,---,0.00,VWS V14.01,2013-01-14 22:29:00,
2013-01-14 14:30:00,36.7,-0.6,30.27,ENE,78,3.0,11.0,20,0.00,,---,0.00,VWS V14.01,2013-01-14 22:30:00,
2013-01-14 14:34:00,36.7,-0.6,30.27,NE,43,4.0,8.0,20,0.00,,---,0.00,VWS V14.01,2013-01-14 22:34:00,
2013-01-14 14:39:00,36.7,-0.6,30.28,East,88,5.0,9.0,20,0.00,,---,0.00,VWS V14.01,2013-01-14 22:39:00,
2013-01-14 14:44:00,36.7,-0.6,30.28,ESE,105,4.0,11.0,20,0.00,,---,0.00,VWS V14.01,2013-01-14 22:44:00,
2013-01-14 14:48:00,36.6,-0.7,30.27,NE,51,5.0,11.0,20,0.00,,---,0.00,VWS V14.01,2013-01-14 22:48:00,
2013-01-14 14:53:00,36.5,-0.8,30.27,SE,129,6.0,11.0,20,0.00,,---,0.00,VWS V14.01,2013-01-14 22:53:00,
2013-01-14 14:58:00,36.4,-0.8,30.28,ENE,77,3.0,3.0,20,0.00,,---,0.00,VWS V14.01,2013-01-14 22:58:00,
2013-01-14 15:00:00,36.4,-0.8,30.28,ENE,68,3.0,11.0,20,0.00,,---,0.00,VWS V14.01,2013-01-14 23:00:00,
2013-01-14 15:03:00,36.6,-0.7,30.28,ESE,118,7.0,9.0,20,0.00,,---,0.00,VWS V14.01,2013-01-14 23:03:00,
2013-01-14 15:08:00,36.5,-0.8,30.27,East,84,7.0,10.0,20,0.00,,---,0.00,VWS V14.01,2013-01-14 23:08:00,
2013-01-14 15:13:00,36.5,-0.8,30.27,ENE,69,8.0,10.0,20,0.00,,---,0.00,VWS V14.01,2013-01-14 23:13:00,
2013-01-14 15:18:00,36.5,-0.8,30.28,SE,127,5.0,10.0,20,0.00,,---,0.00,VWS V14.01,2013-01-14 23:18:00,
2013-01-14 15:23:00,36.5,-0.8,30.28,ESE,109,4.0,10.0,20,0.00,,---,0.00,VWS V14.01,2013-01-14 23:23:00,
2013-01-14 15:28:00,36.5,-0.8,30.28,East,96,3.0,5.0,20,0.00,,---,0.00,VWS V14.01,2013-01-14 23:28:00,
2013-01-14 15:30:00,36.5,-0.8,30.28,SE,125,5.0,10.0,20,0.00,,---,0.00,VWS V14.01,2013-01-14 23:30:00,
2013-01-14 15:33:00,36.6,-0.7,30.28,East,79,3.0,8.0,20,0.00,,---,0.00,VWS V14.01,2013-01-14 23:33:00,
2013-01-14 15:38:00,36.6,-1.8,30.28,East,99,5.0,8.0,19,0.00,,---,0.00,VWS V14.01,2013-01-14 23:38:00,
2013-01-14 15:43:00,36.4,-1.9,30.28,East,86,4.0,8.0,19,0.00,,---,0.00,VWS V14.01,2013-01-14 23:43:00,
2013-01-14 15:48:00,36.4,-1.9,30.28,SE,136,6.0,8.0,19,0.00,,---,0.00,VWS V14.01,2013-01-14 23:48:00,
2013-01-14 15:53:00,36.1,-2.2,30.29,ESE,109,3.0,10.0,19,0.00,,---,0.00,VWS V14.01,2013-01-14 23:53:00,
2013-01-14 15:58:00,36.1,-1.1,30.29,SE,129,8.0,8.0,20,0.00,,---,0.00,VWS V14.01,2013-01-14 23:58:00,
2013-01-14 16:00:00,36.1,-1.1,30.29,ENE,75,4.0,10.0,20,0.00,,---,0.00,VWS V14.01,2013-01-15 00:00:00,
2013-01-14 16:03:00,35.9,-1.2,30.29,ESE,104,4.0,8.0,20,0.00,,---,0.00,VWS V14.01,2013-01-15 00:03:00,
2013-01-14 16:08:00,35.7,-1.4,30.29,ESE,122,6.0,8.0,20,0.00,,---,0.00,VWS V14.01,2013-01-15 00:08:00,
2013-01-14 16:13:00,35.6,-1.5,30.28,ESE,119,5.0,8.0,20,0.00,,---,0.00,VWS V14.01,2013-01-15 00:13:00,
2013-01-14 16:18:00,35.5,-1.6,30.28,ESE,112,5.0,8.0,20,0.00,,---,0.00,VWS V14.01,2013-01-15 00:18:00,
2013-01-14 16:23:00,35.2,-1.8,30.28,ESE,108,7.0,9.0,20,0.00,,---,0.00,VWS V14.01,2013-01-15 00:23:00,
2013-01-14 16:28:00,34.9,-2.1,30.29,East,101,4.0,5.0,20,0.00,,---,0.00,VWS V14.01,2013-01-15 00:28:00,
2013-01-14 16:30:00,34.9,-2.1,30.29,ESE,112,5.0,9.0,20,0.00,,---,0.00,VWS V14.01,2013-01-15 00:30:00,
2013-01-14 16:33:00,34.8,-2.2,30.29,ESE,106,1.0,6.0,20,0.00,,---,0.00,VWS V14.01,2013-01-15 00:33:00,
2013-01-14 16:38:00,34.6,-2.3,30.29,ESE,110,2.0,7.0,20,0.00,,---,0.00,VWS V14.01,2013-01-15 00:38:00,
2013-01-14 16:43:00,34.1,-1.7,30.29,East,98,2.0,7.0,21,0.00,,---,0.00,VWS V14.01,2013-01-15 00:43:00,
2013-01-14 16:48:00,33.6,-2.2,30.29,ESE,111,2.0,7.0,21,0.00,,---,0.00,VWS V14.01,2013-01-15 00:48:00,
2013-01-14 16:53:00,33.1,-2.6,30.29,ESE,117,1.0,7.0,21,0.00,,---,0.00,VWS V14.01,2013-01-15 00:53:00,
2013-01-14 16:58:00,32.5,-2.1,30.30,ESE,112,0.0,1.0,22,0.00,,---,0.00,VWS V14.01,2013-01-15 00:58:00,
2013-01-14 17:00:00,32.5,-2.1,30.29,ESE,113,1.0,7.0,22,0.00,,---,0.00,VWS V14.01,2013-01-15 01:00:00,
2013-01-14 17:03:00,31.8,-2.7,30.30,ESE,109,0.0,3.0,22,0.00,,---,0.00,VWS V14.01,2013-01-15 01:03:00,
2013-01-14 17:08:00,31.4,-2.1,30.30,ESE,110,2.0,3.0,23,0.00,,---,0.00,VWS V14.01,2013-01-15 01:08:00,
2013-01-14 17:13:00,31.0,-1.5,30.30,ESE,112,0.0,3.0,24,0.00,,---,0.00,VWS V14.01,2013-01-15 01:13:00,
2013-01-14 17:18:00,30.5,-2.0,30.30,ESE,120,0.0,3.0,24,0.00,,---,0.00,VWS V14.01,2013-01-15 01:18:00,
2013-01-14 17:23:00,30.1,-2.3,30.30,ESE,120,0.0,3.0,24,0.00,,---,0.00,VWS V14.01,2013-01-15 01:23:00,
2013-01-14 17:28:00,29.5,-2.8,30.30,ESE,120,0.0,0.0,24,0.00,,---,0.00,VWS V14.01,2013-01-15 01:28:00,
2013-01-14 17:30:00,29.5,-2.8,30.30,ESE,120,0.0,3.0,24,0.00,,---,0.00,VWS V14.01,2013-01-15 01:30:00,
2013-01-14 17:33:00,28.8,-2.6,30.31,ESE,120,0.0,0.0,25,0.00,,---,0.00,VWS V14.01,2013-01-15 01:33:00,
2013-01-14 17:38:00,28.2,-2.3,30.30,ESE,120,0.0,0.0,26,0.00,,---,0.00,VWS V14.01,2013-01-15 01:38:00,
2013-01-14 17:43:00,27.6,-2.0,30.31,ESE,120,0.0,0.0,27,0.00,,---,0.00,VWS V14.01,2013-01-15 01:43:00,
2013-01-14 17:48:00,26.6,-2.9,30.31,ESE,120,0.0,0.0,27,0.00,,---,0.00,VWS V14.01,2013-01-15 01:48:00,
2013-01-14 17:53:00,26.1,-2.5,30.31,ESE,120,0.0,0.0,28,0.00,,---,0.00,VWS V14.01,2013-01-15 01:53:00,
2013-01-14 17:58:00,25.9,-2.0,30.31,ESE,120,0.0,0.0,29,0.00,,---,0.00,VWS V14.01,2013-01-15 01:58:00,
2013-01-14 18:00:00,25.9,-2.0,30.31,ESE,120,0.0,0.0,29,0.00,,---,0.00,VWS V14.01,2013-01-15 02:00:00,
2013-01-14 18:03:00,25.5,-2.3,30.31,ESE,120,0.0,0.0,29,0.00,,---,0.00,VWS V14.01,2013-01-15 02:03:00,
2013-01-14 18:08:00,25.1,-2.0,30.32,NNW,347,0.0,1.0,30,0.00,,---,0.00,VWS V14.01,2013-01-15 02:08:00,
2013-01-14 18:13:00,24.5,-1.8,30.32,NNW,347,0.0,1.0,31,0.00,,---,0.00,VWS V14.01,2013-01-15 02:13:00,
2013-01-14 18:18:00,24.0,-1.6,30.32,NNW,347,0.0,1.0,32,0.00,,---,0.00,VWS V14.01,2013-01-15 02:18:00,
2013-01-14 18:23:00,23.7,-1.2,30.32,NNW,347,0.0,1.0,33,0.00,,---,0.00,VWS V14.01,2013-01-15 02:23:00,
2013-01-14 18:28:00,23.6,-0.6,30.32,NNW,347,0.0,0.0,34,0.00,,---,0.00,VWS V14.01,2013-01-15 02:28:00,
2013-01-14 18:30:00,23.6,-0.6,30.32,NNW,347,0.0,1.0,34,0.00,,---,0.00,VWS V14.01,2013-01-15 02:30:00,
2013-01-14 18:33:00,23.7,0.1,30.33,NNW,347,0.0,0.0,35,0.00,,---,0.00,VWS V14.01,2013-01-15 02:33:00,
2013-01-14 18:38:00,23.8,0.2,30.32,NNW,347,0.0,0.0,35,0.00,,---,0.00,VWS V14.01,2013-01-15 02:38:00,
2013-01-14 18:43:00,23.9,0.2,30.33,NNW,347,0.0,0.0,35,0.00,,---,0.00,VWS V14.01,2013-01-15 02:43:00,
2013-01-14 18:48:00,23.5,0.5,30.33,NNW,347,0.0,0.0,36,0.00,,---,0.00,VWS V14.01,2013-01-15 02:48:00,
2013-01-14 18:53:00,23.8,0.8,30.33,NNW,347,0.0,0.0,36,0.00,,---,0.00,VWS V14.01,2013-01-15 02:53:00,
2013-01-14 18:58:00,24.1,1.0,30.33,SW,221,1.0,1.0,36,0.00,,---,0.00,VWS V14.01,2013-01-15 02:58:00,
2013-01-14 19:00:00,24.1,1.0,30.33,SW,221,0.0,2.0,36,0.00,,---,0.00,VWS V14.01,2013-01-15 03:00:00,
2013-01-14 19:03:00,23.6,0.6,30.33,SSW,198,2.0,3.0,36,0.00,,---,0.00,VWS V14.01,2013-01-15 03:03:00,
2013-01-14 19:08:00,22.8,1.0,30.33,SW,231,0.0,3.0,38,0.00,,---,0.00,VWS V14.01,2013-01-15 03:08:00,
2013-01-14 19:13:00,23.0,1.8,30.33,SW,217,0.0,3.0,39,0.00,,---,0.00,VWS V14.01,2013-01-15 03:13:00,
2013-01-14 19:18:00,22.9,1.7,30.33,WSW,243,0.0,3.0,39,0.00,,---,0.00,VWS V14.01,2013-01-15 03:18:00,
2013-01-14 19:23:00,22.5,2.4,30.33,SW,231,1.0,3.0,41,0.00,,---,0.00,VWS V14.01,2013-01-15 03:23:00,
2013-01-14 19:28:00,22.0,2.4,30.33,WSW,242,0.0,0.0,42,0.00,,---,0.00,VWS V14.01,2013-01-15 03:28:00,
2013-01-14 19:30:00,22.0,2.4,30.33,WSW,242,0.0,3.0,42,0.00,,---,0.00,VWS V14.01,2013-01-15 03:30:00,
2013-01-14 19:33:00,21.4,2.4,30.34,SW,217,0.0,1.0,43,0.00,,---,0.00,VWS V14.01,2013-01-15 03:33:00,
2013-01-14 19:38:00,20.9,2.4,30.33,SW,217,0.0,1.0,44,0.00,,---,0.00,VWS V14.01,2013-01-15 03:38:00,
2013-01-14 19:43:00,20.8,2.8,30.33,SW,217,0.0,1.0,45,0.00,,---,0.00,VWS V14.01,2013-01-15 03:43:00,
2013-01-14 19:48:00,20.8,2.3,30.33,SW,217,0.0,1.0,44,0.00,,---,0.00,VWS V14.01,2013-01-15 03:48:00,
2013-01-14 19:53:00,20.2,2.3,30.33,SW,217,0.0,1.0,45,0.00,,---,0.00,VWS V14.01,2013-01-15 03:53:00,
2013-01-14 19:58:00,18.1,2.2,30.33,SW,217,0.0,0.0,49,0.00,,---,0.00,VWS V14.01,2013-01-15 03:58:00,
2013-01-14 20:00:00,18.2,2.3,30.33,SW,217,0.0,1.0,49,0.00,,---,0.00,VWS V14.01,2013-01-15 04:00:00,
2013-01-14 20:03:00,17.2,3.0,30.33,West,277,1.0,2.0,53,0.00,,---,0.00,VWS V14.01,2013-01-15 04:03:00,
2013-01-14 20:08:00,16.8,3.8,30.33,West,278,1.0,2.0,56,0.00,,---,0.00,VWS V14.01,2013-01-15 04:08:00,
2013-01-14 20:13:00,16.7,4.5,30.33,West,280,0.0,2.0,58,0.00,,---,0.00,VWS V14.01,2013-01-15 04:13:00,
2013-01-14 20:18:00,16.9,4.7,30.33,West,278,1.0,2.0,58,0.00,,---,0.00,VWS V14.01,2013-01-15 04:18:00,
2013-01-14 20:23:00,17.3,6.2,30.33,West,269,2.0,3.0,61,0.00,,---,0.00,VWS V14.01,2013-01-15 04:23:00,
2013-01-14 20:28:00,17.5,6.4,30.34,West,274,1.0,1.0,61,0.00,,---,0.00,VWS V14.01,2013-01-15 04:28:00,
2013-01-14 20:30:00,17.5,6.4,30.34,West,274,0.0,3.0,61,0.00,,---,0.00,VWS V14.01,2013-01-15 04:30:00,
2013-01-14 20:33:00,17.7,6.9,30.33,WSW,256,0.0,2.0,62,0.00,,---,0.00,VWS V14.01,2013-01-15 04:33:00,
2013-01-14 20:38:00,17.6,6.8,30.33,West,266,0.0,2.0,62,0.00,,---,0.00,VWS V14.01,2013-01-15 04:38:00,
2013-01-14 20:43:00,17.5,7.4,30.33,West,277,1.0,2.0,64,0.00,,---,0.00,VWS V14.01,2013-01-15 04:43:00,
2013-01-14 20:48:00,17.4,7.7,30.34,West,280,0.0,2.0,65,0.00,,---,0.00,VWS V14.01,2013-01-15 04:48:00,
2013-01-14 20:53:00,17.4,8.0,30.34,West,264,0.0,2.0,66,0.00,,---,0.00,VWS V14.01,2013-01-15 04:53:00,
2013-01-14 20:58:00,17.5,8.1,30.34,West,264,0.0,2.0,66,0.00,,---,0.00,VWS V14.01,2013-01-15 04:58:00,
2013-01-14 21:00:00,17.5,8.1,30.34,West,264,0.0,0.0,66,0.00,,---,0.00,VWS V14.01,2013-01-15 05:00:00,
2013-01-14 21:01:00,17.5,8.1,30.34,WSW,253,0.0,1.0,66,0.00,,---,0.00,VWS V14.01,2013-01-15 05:01:00,
2013-01-14 21:06:00,17.5,8.1,30.34,WSW,247,0.0,1.0,66,0.00,,---,0.00,VWS V14.01,2013-01-15 05:06:00,
2013-01-14 21:11:00,17.3,7.9,30.34,WSW,246,0.0,1.0,66,0.00,,---,0.00,VWS V14.01,2013-01-15 05:11:00,
2013-01-14 21:16:00,17.1,8.1,30.35,West,269,0.0,1.0,67,0.00,,---,0.00,VWS V14.01,2013-01-15 05:16:00,
2013-01-14 21:21:00,17.0,7.9,30.35,West,269,0.0,1.0,67,0.00,,---,0.00,VWS V14.01,2013-01-15 05:21:00,
2013-01-14 21:26:00,17.1,8.1,30.35,West,269,1.0,1.0,67,0.00,,---,0.00,VWS V14.01,2013-01-15 05:26:00,
2013-01-14 21:30:00,17.2,7.8,30.35,WSW,255,0.0,1.0,66,0.00,,---,0.00,VWS V14.01,2013-01-15 05:30:00,
2013-01-14 21:31:00,17.3,7.2,30.35,SW,233,0.0,1.0,64,0.00,,---,0.00,VWS V14.01,2013-01-15 05:31:00,
2013-01-14 21:36:00,17.3,7.2,30.36,West,270,0.0,2.0,64,0.00,,---,0.00,VWS V14.01,2013-01-15 05:36:00,
2013-01-14 21:41:00,17.5,7.4,30.36,WSW,252,0.0,2.0,64,0.00,,---,0.00,VWS V14.01,2013-01-15 05:41:00,
2013-01-14 21:46:00,17.4,7.3,30.35,WSW,240,0.0,2.0,64,0.00,,---,0.00,VWS V14.01,2013-01-15 05:46:00,
2013-01-14 21:51:00,17.3,7.6,30.35,West,260,0.0,2.0,65,0.00,,---,0.00,VWS V14.01,2013-01-15 05:51:00,
2013-01-14 21:56:00,17.3,7.6,30.35,WSW,242,0.0,2.0,65,0.00,,---,0.00,VWS V14.01,2013-01-15 05:56:00,
2013-01-14 22:00:00,17.3,7.6,30.35,WSW,242,0.0,2.0,65,0.00,,---,0.00,VWS V14.01,2013-01-15 06:00:00,
2013-01-14 22:01:00,17.2,7.5,30.35,WSW,242,0.0,0.0,65,0.00,,---,0.00,VWS V14.01,2013-01-15 06:01:00,
2013-01-14 22:06:00,17.3,7.6,30.35,WSW,243,0.0,0.0,65,0.00,,---,0.00,VWS V14.01,2013-01-15 06:06:00,
2013-01-14 22:11:00,17.0,6.9,30.35,West,266,0.0,1.0,64,0.00,,---,0.00,VWS V14.01,2013-01-15 06:11:00,
2013-01-14 22:16:00,16.0,6.3,30.35,West,269,1.0,1.0,65,0.00,,---,0.00,VWS V14.01,2013-01-15 06:16:00,
2013-01-14 22:21:00,15.0,6.0,30.35,West,274,0.0,1.0,67,0.00,,---,0.00,VWS V14.01,2013-01-15 06:21:00,
2013-01-14 22:26:00,14.4,6.1,30.35,West,276,0.0,1.0,69,0.00,,---,0.00,VWS V14.01,2013-01-15 06:26:00,
2013-01-14 22:30:00,14.3,6.3,30.35,West,269,0.0,1.0,70,0.00,,---,0.00,VWS V14.01,2013-01-15 06:30:00,
2013-01-14 22:31:00,14.1,6.4,30.35,West,262,0.0,1.0,71,0.00,,---,0.00,VWS V14.01,2013-01-15 06:31:00,
2013-01-14 22:36:00,14.1,6.4,30.35,West,262,0.0,1.0,71,0.00,,---,0.00,VWS V14.01,2013-01-15 06:36:00,
2013-01-14 22:41:00,13.9,6.6,30.35,West,271,0.0,1.0,72,0.00,,---,0.00,VWS V14.01,2013-01-15 06:41:00,
2013-01-14 22:46:00,14.1,7.1,30.35,West,262,0.0,1.0,73,0.00,,---,0.00,VWS V14.01,2013-01-15 06:46:00,
2013-01-14 22:51:00,14.0,7.0,30.34,West,262,0.0,1.0,73,0.00,,---,0.00,VWS V14.01,2013-01-15 06:51:00,
2013-01-14 22:56:00,14.4,6.7,30.35,West,267,0.0,1.0,71,0.00,,---,0.00,VWS V14.01,2013-01-15 06:56:00,
2013-01-14 23:00:00,14.4,6.7,30.35,West,267,0.0,1.0,71,0.00,,---,0.00,VWS V14.01,2013-01-15 07:00:00,
2013-01-14 23:01:00,14.3,6.3,30.35,West,267,0.0,0.0,70,0.00,,---,0.00,VWS V14.01,2013-01-15 07:01:00,
2013-01-14 23:06:00,13.9,6.2,30.35,West,277,1.0,2.0,71,0.00,,---,0.00,VWS V14.01,2013-01-15 07:06:00,
2013-01-14 23:11:00,14.1,7.1,30.35,West,266,0.0,3.0,73,0.00,,---,0.00,VWS V14.01,2013-01-15 07:11:00,
2013-01-14 23:16:00,14.2,6.8,30.35,West,266,0.0,3.0,72,0.00,,---,0.00,VWS V14.01,2013-01-15 07:16:00,
2013-01-14 23:21:00,14.1,6.8,30.35,West,271,0.0,3.0,72,0.00,,---,0.00,VWS V14.01,2013-01-15 07:21:00,
2013-01-14 23:26:00,14.0,6.3,30.35,West,267,0.0,3.0,71,0.00,,---,0.00,VWS V14.01,2013-01-15 07:26:00,
2013-01-14 23:30:00,14.0,6.7,30.35,West,266,0.0,3.0,72,0.00,,---,0.00,VWS V14.01,2013-01-15 07:30:00,
2013-01-14 23:31:00,14.1,6.4,30.35,West,273,0.0,0.0,71,0.00,,---,0.00,VWS V14.01,2013-01-15 07:31:00,
2013-01-14 23:36:00,14.1,6.4,30.35,West,277,2.0,2.0,71,0.00,,---,0.00,VWS V14.01,2013-01-15 07:36:00,
2013-01-14 23:41:00,14.2,6.8,30.35,West,276,2.0,3.0,72,0.00,,---,0.00,VWS V14.01,2013-01-15 07:41:00,
2013-01-14 23:46:00,14.3,7.2,30.35,West,276,1.0,3.0,73,0.00,,---,0.00,VWS V14.01,2013-01-15 07:46:00,
2013-01-14 23:51:00,14.2,7.4,30.35,West,278,1.0,3.0,74,0.00,,---,0.00,VWS V14.01,2013-01-15 07:51:00,
2013-01-14 23:56:00,14.1,7.3,30.35,West,278,0.0,3.0,74,0.00,,---,0.00,VWS V14.01,2013-01-15 07:56:00,